[[{"header":{"parameterUnit":"m.s-1","parameterCategory":1,"la1":30.2991,"la2":30.254,"lo1":-89.0895,"lo2":-89.0444,"dy":0.0017,"dx":0.0017,"nx":28,"ny":28,"refTime":"2023-10-27T21:00:00:Z","depth":0,"parameterNumber":2,"parameterNumberName":"U-component_of_WINDS"},"data":[0,0,0,0,0,0,0,0,0,0,0,0,0,0,0,0,0,0,0,0,0,0,0,0,0,0,0,0,0,0,0,0,0,0,0,0,0,0,0,0,0,0,0,0,0,0,0,0,0,0,0,0,0,0,0,0,0,0,-2.55,-2.55,0,-2.5504,-2.5504,-2.5504,-2.5428,-2.5426,-2.5424,-2.5422,-2.5427,-2.5428,-2.543,0,0,0,0,0,0,0,0,0,0,0,0,0,-2.5427,-2.5429,-2.55,-2.55,-2.55,-2.5504,-2.5504,-2.5504,-2.5429,-2.5426,-2.5424,-2.5421,-2.5426,-2.5428,-2.5431,0,0,0,0,0,0,0,0,0,0,0,0,0,-2.5448,-2.5429,-2.55,-2.5463,-2.5459,-2.5504,-2.5504,-2.5504,-2.5429,-2.5426,-2.5423,-2.542,-2.5425,-2.5428,-2.5431,-2.5511,0,0,-2.544,-2.5442,0,0,0,0,0,0,0,0,-2.5447,-2.5451,-2.5468,-2.5465,-2.5462,-2.5462,-2.548,-2.5507,-2.543,-2.5441,-2.5422,-2.5418,-2.5441,-2.5443,-2.545,-2.5512,-2.5512,-2.5441,-2.5442,-2.5444,-2.5445,0,0,0,0,0,0,0,-2.5445,-2.545,-2.5502,-2.5469,-2.5465,-2.5446,-2.5446,-2.5485,-2.5458,-2.5439,-2.5434,-2.5435,-2.5439,-2.5447,-2.545,-2.5512,-2.544,-2.5443,-2.5445,-2.5446,-2.564,-2.5643,0,0,0,0,0,0,-2.5449,-2.5449,-2.5501,-2.5502,-2.5447,-2.545,-2.5449,-2.5465,-2.5457,-2.5453,-2.5438,-2.5432,-2.5444,-2.5446,-2.5449,-2.5543,-2.5444,-2.5447,-2.5448,-2.5637,-2.5641,-2.5645,0,0,0,0,0,0,-2.5448,-2.5454,-2.5501,-2.5474,-2.5479,-2.5454,-2.5473,-2.5467,-2.5476,-2.5456,-2.5451,-2.5452,-2.5441,-2.5445,-2.5497,-2.5542,-2.5448,-2.5451,-2.5633,-2.5638,-2.5643,-2.5731,0,0,0,0,0,0,-2.5446,-2.5454,-2.5484,-2.5475,-2.548,-2.5548,-2.5476,-2.5469,-2.5481,-2.5473,-2.5468,-2.5464,-2.5439,-2.5493,-2.55,-2.5544,-2.5453,-2.5629,-2.5635,-2.5641,-2.5723,-2.5738,-2.575,0,0,0,0,0,-2.5444,-2.5509,-2.5486,-2.5493,-2.5517,-2.5551,-2.5554,-2.5524,-2.5485,-2.5515,-2.5503,-2.5464,-2.5536,-2.5498,-2.5506,-2.5552,-2.5626,-2.5633,-2.5641,-2.5717,-2.5735,-2.575,0,0,0,0,0,0,-2.5524,-2.5507,-2.5482,-2.5546,-2.5551,-2.5538,-2.5575,-2.5544,-2.5559,-2.5551,-2.5513,-2.5513,-2.5571,-2.5567,-2.5525,-2.563,-2.5574,-2.5583,-2.563,-2.5647,-2.566,-2.5659,-2.5456,0,0,0,0,0,-2.5549,-2.5577,-2.5561,-2.562,-2.5623,-2.5599,-2.5613,-2.5589,-2.5593,-2.5594,-2.5586,-2.559,-2.5614,-2.563,-2.5651,-2.5723,-2.5721,-2.5759,-2.5772,-2.5783,-2.5791,-2.583,-2.5846,-2.5669,-2.5669,-2.5669,0,0,-2.5601,-2.5595,-2.5616,-2.5636,-2.5636,-2.5667,-2.5601,-2.5636,-2.5659,-2.5599,-2.5647,-2.5642,-2.5645,-2.5707,-2.5734,-2.5705,-2.584,-2.5793,-2.5802,-2.5804,-2.5839,-2.5856,-2.5871,-2.5674,-2.5673,-2.5672,0,0,-2.5711,-2.571,-2.5758,-2.5761,-2.5763,-2.5747,-2.5759,-2.5752,-2.5745,-2.5793,-2.5749,-2.5776,-2.5818,-2.5821,-2.5829,-2.5943,-2.5908,-2.5951,-2.602,-2.6058,-2.6072,-2.6084,-2.6124,-2.6139,-2.5959,-2.5959,-2.596,0,-2.5775,-2.5819,-2.5787,-2.5825,-2.5835,-2.5784,-2.5833,-2.5837,-2.5846,-2.5854,-2.5823,-2.5874,-2.5873,-2.5935,-2.5963,-2.5971,-2.5983,-2.595,-2.6072,-2.6084,-2.6095,-2.6133,-2.6148,-2.5965,-2.5964,-2.5963,-2.5963,0,-2.5898,-2.593,-2.5968,-2.5979,-2.5993,-2.6037,-2.6012,-2.6031,-2.6007,-2.5994,-2.6044,-2.604,-2.606,-2.6073,-2.605,-2.6133,-2.6115,-2.6079,-2.6021,-2.6118,-2.6152,-2.6167,-2.5972,-2.597,-2.5969,-2.5967,0,0,-2.6057,-2.605,-2.6064,-2.6068,-2.6068,-2.6092,-2.6134,-2.6153,-2.6169,-2.6178,-2.6212,-2.6249,-2.6216,-2.6225,-2.6202,-2.6235,-2.6325,-2.6194,-2.6194,-2.6218,-2.6416,-2.6442,-2.646,-2.6303,-2.6305,-2.6307,-2.6415,0,-2.6163,-2.6233,-2.6206,-2.6278,-2.6307,-2.6259,-2.6296,-2.63,-2.629,-2.6313,-2.6302,-2.6329,-2.6283,-2.6288,-2.6318,-2.6308,-2.6364,-2.63,-2.6333,-2.6335,-2.6333,-2.6478,-2.6506,-2.6608,-2.6429,-2.6431,-2.6433,0,-2.6296,-2.631,-2.6385,-2.638,-2.6391,-2.6424,-2.644,-2.6463,-2.6467,-2.6457,-2.6468,-2.6439,-2.6479,-2.6424,-2.648,-2.6437,-2.645,-2.6447,-2.645,-2.6451,-2.6389,-2.6482,-2.664,-2.6655,-2.6454,-2.6452,-2.6451,0,-2.6403,-2.6441,-2.6491,-2.6496,-2.6492,-2.6516,-2.6516,-2.6517,-2.653,-2.6545,-2.6553,-2.6572,-2.6582,-2.6598,-2.6574,-2.6536,-2.6634,-2.6576,-2.6627,-2.6627,-2.6648,-2.6647,-2.6809,-2.6659,-2.6658,-2.6658,-2.6658,0,-2.6523,-2.6571,-2.6539,-2.657,-2.6622,-2.6591,-2.6644,-2.6638,-2.664,-2.6669,-2.663,-2.6658,-2.6626,-2.6651,-2.6633,-2.6682,-2.6687,-2.6681,-2.6675,-2.6683,-2.6684,-2.669,-2.6682,-2.6662,-2.6661,-2.666,-2.666,0,-2.6651,-2.6632,-2.6683,-2.6675,-2.6674,-2.6713,-2.6707,-2.6735,-2.6723,-2.676,-2.6767,-2.6748,-2.6776,-2.6755,-2.6782,-2.677,-2.6835,-2.682,-2.6833,-2.6829,-2.688,-2.6875,-2.7051,-2.7072,-2.6909,-2.6911,-2.6912,0,-2.6729,-2.6764,-2.6761,-2.6777,-2.6779,-2.6807,-2.682,-2.6792,-2.6808,-2.6816,-2.6844,-2.6868,-2.6886,-2.6933,-2.6922,-2.6943,-2.6928,-2.6988,-2.6931,-2.6938,-2.6928,-2.6925,-2.6929,-2.6999,-2.7001,-2.7003,-2.7004,0,-2.6868,-2.6857,-2.6878,-2.6897,-2.6914,-2.6927,-2.6937,-2.6953,-2.6925,-2.6945,-2.6973,-2.6987,-2.7016,-2.7041,-2.7058,-2.7058,-2.7026,-2.7022,-2.7035,-2.7043,-2.7049,-2.7046,-2.6864,-2.7018,-2.7017,-2.7015,-2.7015,-2.7014,-2.6972,-2.7002,-2.7004,-2.7029,-2.7034,-2.7045,-2.7071,-2.7063,-2.7085,-2.7106,-2.7089,-2.7122,-2.7127,-2.7147,-2.7151,-2.7177,-2.7152,-2.7171,-2.7175,-2.718,-2.7187,-2.7046,-2.718,-2.718,-2.7179,-2.7179,-2.7179,0,-2.7109,-2.7108,-2.7132,-2.7147,-2.7168,-2.7137,-2.7147,-2.7166,-2.7196,-2.7203,-2.7221,-2.7254,-2.7279,-2.727,-2.7292,-2.7315,-2.7301,-2.7322,-2.7319,-2.7319,-2.7208,-2.7194,-2.7332,-2.7332,-2.7332,-2.7332,-2.7332,-2.7332,-2.7182,-2.723,-2.722,-2.7271,-2.727,-2.7303,-2.7311,-2.7321,-2.7326,-2.7364,-2.7384,-2.7379,-2.738,-2.7402,-2.7423,-2.742,-2.7429,-2.7455,-2.7447,-2.7342,-2.7327,-2.7313,-2.73,-2.7458,-2.7458,-2.7556,-2.7557,-2.7557]},{"header":{"parameterUnit":"m.s-1","parameterCategory":1,"la1":30.2991,"la2":30.254,"lo1":-89.0895,"lo2":-89.0444,"dy":0.0017,"dx":0.0017,"nx":28,"ny":28,"refTime":"2023-10-27T21:00:00:Z","depth":0,"parameterNumber":3,"parameterNumberName":"V-component_of_WINDS"},"data":[0,0,0,0,0,0,0,0,0,0,0,0,0,0,0,0,0,0,0,0,0,0,0,0,0,0,0,0,0,0,0,0,0,0,0,0,0,0,0,0,0,0,0,0,0,0,0,0,0,0,0,0,0,0,0,0,0,0,1.4717,1.4717,0,1.4772,1.4773,1.4773,1.4814,1.4814,1.4815,1.4815,1.4868,1.4869,1.487,0,0,0,0,0,0,0,0,0,0,0,0,0,1.4644,1.4645,1.4717,1.4717,1.4718,1.4772,1.4773,1.4774,1.4814,1.4814,1.4815,1.4815,1.4867,1.4869,1.487,0,0,0,0,0,0,0,0,0,0,0,0,0,1.4685,1.4645,1.4717,1.4745,1.4748,1.4772,1.4773,1.4774,1.4814,1.4814,1.4815,1.4815,1.4867,1.4869,1.487,1.4869,0,0,1.4875,1.4876,0,0,0,0,0,0,0,0,1.4682,1.4687,1.474,1.4743,1.4747,1.4787,1.4766,1.4806,1.4814,1.4789,1.4815,1.4816,1.484,1.4844,1.4853,1.4872,1.4874,1.4875,1.4876,1.4877,1.4877,0,0,0,0,0,0,0,1.468,1.4685,1.4739,1.4741,1.4745,1.4754,1.4761,1.4774,1.4811,1.4791,1.4794,1.48,1.4842,1.4851,1.4855,1.4875,1.4875,1.4877,1.4878,1.4878,1.4897,1.4896,0,0,0,0,0,0,1.4673,1.4683,1.4737,1.474,1.4715,1.4755,1.4762,1.4773,1.4811,1.4817,1.48,1.4802,1.4848,1.4853,1.4857,1.4859,1.4877,1.4878,1.4879,1.4897,1.4896,1.4896,0,0,0,0,0,0,1.4671,1.4677,1.4735,1.4712,1.472,1.4756,1.4768,1.4774,1.4784,1.4817,1.4824,1.4803,1.4849,1.4854,1.4866,1.4861,1.4879,1.488,1.4898,1.4897,1.4896,1.4862,0,0,0,0,0,0,1.4669,1.4676,1.4677,1.4712,1.4721,1.4744,1.4767,1.4775,1.4787,1.479,1.4822,1.4828,1.485,1.4864,1.4868,1.4864,1.4882,1.4898,1.4897,1.4896,1.4864,1.4861,1.4858,0,0,0,0,0,1.4666,1.4664,1.4677,1.4683,1.4723,1.4744,1.4749,1.4776,1.4786,1.4787,1.4809,1.4827,1.4861,1.4865,1.487,1.4866,1.4899,1.4898,1.4896,1.4866,1.4861,1.4858,0,0,0,0,0,0,1.4625,1.4669,1.4683,1.4693,1.4714,1.475,1.4752,1.477,1.4788,1.479,1.4822,1.4828,1.4837,1.4853,1.4856,1.4868,1.4882,1.4882,1.4857,1.4853,1.485,1.4846,1.4883,0,0,0,0,0,1.4617,1.4632,1.4669,1.4673,1.4684,1.4716,1.4726,1.4745,1.4768,1.4777,1.4799,1.482,1.4836,1.4845,1.4862,1.4867,1.4875,1.4867,1.4864,1.4861,1.486,1.4865,1.4862,1.4892,1.4892,1.4893,0,0,1.4601,1.4627,1.4633,1.4666,1.4685,1.4698,1.4723,1.4736,1.4746,1.4778,1.4792,1.4809,1.4834,1.4843,1.4848,1.4856,1.4854,1.4859,1.4857,1.4858,1.4864,1.4861,1.4858,1.4892,1.4892,1.4892,0,0,1.4578,1.4599,1.4606,1.4625,1.4654,1.4676,1.4678,1.4712,1.4725,1.4739,1.4764,1.4776,1.4802,1.482,1.4832,1.4818,1.4836,1.4823,1.4805,1.481,1.4807,1.4806,1.4801,1.4799,1.4822,1.4822,1.4822,0,1.4554,1.4576,1.4607,1.4619,1.4633,1.4665,1.4672,1.4688,1.472,1.4729,1.4738,1.4773,1.4792,1.4806,1.4803,1.4811,1.4814,1.4819,1.4806,1.4804,1.4803,1.4799,1.4797,1.482,1.482,1.482,1.4821,0,1.4545,1.456,1.4562,1.4595,1.4609,1.4618,1.4649,1.466,1.4678,1.4699,1.4713,1.4738,1.476,1.4765,1.4782,1.4782,1.4786,1.48,1.4815,1.4797,1.4794,1.4793,1.4818,1.4818,1.4819,1.4819,0,0,1.4496,1.4548,1.4548,1.4564,1.4599,1.4611,1.4622,1.4646,1.4654,1.4676,1.4686,1.4708,1.4722,1.4736,1.4755,1.4759,1.4748,1.4773,1.4774,1.4768,1.475,1.4739,1.4737,1.476,1.476,1.4759,1.4748,0,1.448,1.4503,1.4531,1.4544,1.4559,1.459,1.46,1.4622,1.4642,1.4657,1.4679,1.4695,1.4711,1.472,1.4725,1.4748,1.4744,1.4749,1.4769,1.4769,1.4762,1.4735,1.4724,1.4711,1.4747,1.4746,1.4746,0,1.4462,1.4485,1.4499,1.4535,1.4543,1.4551,1.4576,1.459,1.4616,1.463,1.4647,1.4668,1.4681,1.4695,1.4714,1.4716,1.4726,1.4739,1.4739,1.4742,1.4757,1.4737,1.4708,1.4706,1.4745,1.4745,1.4745,0,1.4426,1.446,1.4473,1.4486,1.4528,1.4533,1.455,1.4578,1.459,1.4612,1.462,1.4642,1.4654,1.467,1.4697,1.4705,1.4713,1.4729,1.4725,1.4724,1.4725,1.4724,1.4697,1.4731,1.4731,1.4731,1.4731,0,1.4404,1.4412,1.4458,1.4466,1.4476,1.4509,1.4518,1.4538,1.4562,1.4575,1.4603,1.4613,1.4649,1.4663,1.4684,1.4697,1.4702,1.4713,1.4719,1.4711,1.471,1.4718,1.4719,1.4731,1.4731,1.4731,1.4731,0,1.4365,1.4396,1.4414,1.4453,1.4463,1.4468,1.4502,1.4511,1.4533,1.4549,1.4554,1.4589,1.4608,1.4637,1.4664,1.4678,1.4687,1.4696,1.4679,1.4682,1.4677,1.4677,1.4653,1.4652,1.4686,1.4686,1.4686,0,1.4349,1.4357,1.4397,1.4409,1.4426,1.4443,1.4457,1.449,1.4503,1.4535,1.454,1.4562,1.4581,1.461,1.4637,1.4659,1.4668,1.4659,1.4671,1.4664,1.4669,1.4668,1.4669,1.4655,1.4655,1.4654,1.4654,0,1.4318,1.4334,1.4353,1.4379,1.4395,1.4417,1.4439,1.4446,1.4484,1.4497,1.4518,1.4533,1.4563,1.4584,1.4609,1.4627,1.4646,1.465,1.465,1.4642,1.4632,1.4638,1.4671,1.465,1.4651,1.4651,1.4651,1.4651,1.429,1.4299,1.433,1.4351,1.4372,1.4393,1.4404,1.4429,1.4447,1.4474,1.4493,1.4513,1.454,1.4576,1.4593,1.4609,1.4617,1.4617,1.4617,1.4617,1.4614,1.463,1.4613,1.4613,1.4613,1.4614,1.4614,0,1.4261,1.4283,1.4302,1.4334,1.4351,1.437,1.4397,1.4409,1.4427,1.4452,1.4471,1.4495,1.4516,1.4546,1.4569,1.4576,1.4586,1.4581,1.4581,1.4585,1.4605,1.4603,1.4573,1.4573,1.4573,1.4573,1.4573,1.4573,1.4248,1.4263,1.4283,1.4309,1.4331,1.4352,1.4366,1.4385,1.4405,1.4432,1.445,1.447,1.4497,1.4522,1.4543,1.4551,1.4558,1.4551,1.4561,1.458,1.4583,1.4587,1.4585,1.4552,1.4552,1.454,1.454,1.454]}]]